When you browse on this site, cookies collect data to enhance your experience and personalize the content and advertising you see.
Visit our Privacy Policy to learn more. By continuing to use the site, you agree to this use of cookies and data.
  • In Hungary
  • List of Countries
  • For 7 days
  • Water Temperature
  • Satellite Maps
  • Weather Map
  • News
  • Weather Widgets
  • user-avatar
    Login

    Hourly Weather Chinna Salem

    Today, 17 January, Thursday

    Time Temperature Precipitation Wind Pressure Humidity
    00:00 +20°C° 0 mm 2 mps 750 mmHg 84%
    01:00 +20°C° 0 mm 2 mps 750 mmHg 85%
    02:00 +20°C° 0 mm 2 mps 749 mmHg 86%
    03:00 +20°C° 0 mm 2 mps 749 mmHg 87%
    04:00 +20°C° 0 mm 2 mps 749 mmHg 88%
    05:00 +19°C° 0 mm 2 mps 749 mmHg 89%
    06:00 +21°C° 0 mm 2 mps 750 mmHg 83%
    07:00 +23°C° 0 mm 2 mps 750 mmHg 78%
    08:00 +25°C° 0 mm 2 mps 751 mmHg 72%
    09:00 +26°C° 0 mm 3 mps 751 mmHg 65%
    10:00 +28°C° 0 mm 3 mps 750 mmHg 58%
    11:00 +30°C° 0 mm 4 mps 750 mmHg 51%
    12:00 +30°C° 0 mm 4 mps 750 mmHg 50%
    13:00 +32°C° 0 mm 4 mps 749 mmHg 49%
    14:00 +32°C° 0 mm 4 mps 748 mmHg 48%
    15:00 +30°C° 0 mm 4 mps 748 mmHg 53%
    16:00 +29°C° 0 mm 4 mps 748 mmHg 57%
    17:00 +28°C° 0 mm 4 mps 748 mmHg 62%
    18:00 +27°C° 0 mm 3 mps 749 mmHg 69%
    19:00 +25°C° 0 mm 3 mps 749 mmHg 76%
    20:00 +24°C° 0 mm 2 mps 750 mmHg 84%
    21:00 +23°C° 0 mm 2 mps 750 mmHg 86%
    22:00 +23°C° 0 mm 2 mps 750 mmHg 88%
    23:00 +21°C° 0 mm 2 mps 750 mmHg 90%

    Tomorrow, 18 January, Friday

    Time Temperature Precipitation Wind Pressure Humidity
    00:00 +21°C° 0 mm 2 mps 750 mmHg 91%
    01:00 +20°C° 0 mm 2 mps 750 mmHg 92%
    02:00 +20°C° 0 mm 2 mps 749 mmHg 93%
    03:00 +20°C° 0 mm 2 mps 749 mmHg 94%
    04:00 +19°C° 0 mm 2 mps 749 mmHg 94%
    05:00 +19°C° 0 mm 2 mps 749 mmHg 94%
    06:00 +21°C° 0 mm 2 mps 750 mmHg 88%
    07:00 +23°C° 0 mm 2 mps 751 mmHg 82%
    08:00 +24°C° 0 mm 2 mps 751 mmHg 75%
    09:00 +26°C° 0 mm 3 mps 751 mmHg 65%
    10:00 +28°C° 0 mm 3 mps 751 mmHg 55%
    11:00 +30°C° 0 mm 4 mps 751 mmHg 45%
    12:00 +30°C° 0 mm 4 mps 750 mmHg 42%
    13:00 +32°C° 0 mm 4 mps 749 mmHg 38%
    14:00 +33°C° 0 mm 4 mps 748 mmHg 35%
    15:00 +32°C° 0 mm 4 mps 748 mmHg 39%
    16:00 +30°C° 0 mm 4 mps 748 mmHg 44%
    17:00 +29°C° 0 mm 4 mps 748 mmHg 48%
    18:00 +27°C° 0 mm 3 mps 749 mmHg 58%
    19:00 +25°C° 0 mm 3 mps 750 mmHg 69%
    20:00 +23°C° 0 mm 2 mps 750 mmHg 79%
    21:00 +21°C° 0 mm 2 mps 750 mmHg 83%
    22:00 +21°C° 0 mm 2 mps 751 mmHg 86%
    23:00 +20°C° 0 mm 2 mps 751 mmHg 90%

    Day after tomorrow, 19 January, Saturday

    Time Temperature Precipitation Wind Pressure Humidity
    00:00 +20°C° 0 mm 2 mps 750 mmHg 91%
    01:00 +21°C° 0 mm 1 mps 750 mmHg 92%
    02:00 +20°C° 0 mm 1 mps 750 mmHg 93%
    03:00 +19°C° 0 mm 2 mps 750 mmHg 93%
    04:00 +19°C° 0 mm 2 mps 750 mmHg 93%
    05:00 +19°C° 0 mm 2 mps 750 mmHg 93%
    06:00 +20°C° 0 mm 2 mps 750 mmHg 85%
    07:00 +23°C° 0 mm 2 mps 751 mmHg 78%
    08:00 +24°C° 0 mm 3 mps 751 mmHg 71%
    09:00 +26°C° 0 mm 3 mps 751 mmHg 62%
    10:00 +28°C° 0 mm 3 mps 751 mmHg 52%
    11:00 +30°C° 0 mm 4 mps 751 mmHg 42%
    12:00 +32°C° 0 mm 4 mps 750 mmHg 39%
    13:00 +33°C° 0 mm 4 mps 749 mmHg 36%
    14:00 +34°C° 0 mm 4 mps 748 mmHg 33%
    15:00 +33°C° 0 mm 4 mps 748 mmHg 37%
    16:00 +32°C° 0 mm 4 mps 748 mmHg 40%
    17:00 +30°C° 0 mm 4 mps 748 mmHg 44%
    18:00 +27°C° 0 mm 4 mps 749 mmHg 55%
    19:00 +25°C° 0 mm 3 mps 750 mmHg 66%
    20:00 +22°C° 0 mm 3 mps 750 mmHg 77%
    21:00 +21°C° 0 mm 2 mps 750 mmHg 82%
    22:00 +21°C° 0 mm 2 mps 750 mmHg 86%
    23:00 +20°C° 0 mm 2 mps 750 mmHg 90%

    20 January, Sunday

    Time Temperature Precipitation Wind Pressure Humidity
    00:00 +20°C° 0 mm 2 mps 750 mmHg 91%
    01:00 +20°C° 0 mm 2 mps 750 mmHg 92%
    02:00 +19°C° 0 mm 2 mps 749 mmHg 92%
    03:00 +19°C° 0 mm 2 mps 749 mmHg 92%
    04:00 +19°C° 0 mm 2 mps 750 mmHg 93%
    05:00 +19°C° 0 mm 2 mps 750 mmHg 93%
    06:00 +20°C° 0 mm 2 mps 750 mmHg 86%
    07:00 +23°C° 0 mm 2 mps 751 mmHg 80%
    08:00 +24°C° 0 mm 2 mps 752 mmHg 74%
    09:00 +26°C° 0 mm 3 mps 752 mmHg 65%
    10:00 +28°C° 0 mm 3 mps 751 mmHg 56%
    11:00 +30°C° 0 mm 4 mps 751 mmHg 47%
    12:00 +32°C° 0 mm 4 mps 750 mmHg 43%
    13:00 +32°C° 0 mm 4 mps 749 mmHg 39%
    14:00 +33°C° 0 mm 4 mps 749 mmHg 35%
    15:00 +32°C° 0 mm 4 mps 749 mmHg 38%
    16:00 +32°C° 0 mm 4 mps 749 mmHg 41%
    17:00 +30°C° 0 mm 3 mps 749 mmHg 43%
    18:00 +28°C° 0 mm 3 mps 749 mmHg 54%
    19:00 +25°C° 0 mm 3 mps 750 mmHg 64%
    20:00 +23°C° 0 mm 2 mps 751 mmHg 74%
    21:00 +23°C° 0 mm 2 mps 751 mmHg 78%
    22:00 +21°C° 0 mm 2 mps 751 mmHg 83%
    23:00 +20°C° 0 mm 2 mps 751 mmHg 87%

    21 January, Monday

    Time Temperature Precipitation Wind Pressure Humidity
    00:00 +20°C° 0 mm 2 mps 751 mmHg 88%
    01:00 +20°C° 0 mm 2 mps 750 mmHg 89%
    02:00 +19°C° 0 mm 2 mps 750 mmHg 91%
    03:00 +19°C° 0 mm 2 mps 750 mmHg 90%
    04:00 +19°C° 0 mm 2 mps 750 mmHg 90%
    05:00 +19°C° 0 mm 2 mps 750 mmHg 90%
    06:00 +20°C° 0 mm 2 mps 751 mmHg 85%
    07:00 +23°C° 0 mm 2 mps 751 mmHg 79%
    08:00 +24°C° 0 mm 2 mps 752 mmHg 73%
    09:00 +26°C° 0 mm 3 mps 752 mmHg 62%
    10:00 +28°C° 0 mm 3 mps 751 mmHg 51%
    11:00 +30°C° 0 mm 3 mps 751 mmHg 39%
    12:00 +31°C° 0 mm 3 mps 750 mmHg 36%
    13:00 +33°C° 0 mm 3 mps 749 mmHg 32%
    14:00 +34°C° 0 mm 3 mps 748 mmHg 29%
    15:00 +33°C° 0 mm 3 mps 748 mmHg 33%
    16:00 +31°C° 0 mm 3 mps 748 mmHg 38%
    17:00 +30°C° 0 mm 3 mps 748 mmHg 42%
    18:00 +28°C° 0 mm 3 mps 749 mmHg 54%
    19:00 +25°C° 0 mm 3 mps 749 mmHg 67%
    20:00 +23°C° 0 mm 2 mps 750 mmHg 79%
    21:00 +23°C° 0 mm 2 mps 750 mmHg 82%
    22:00 +21°C° 0 mm 2 mps 750 mmHg 85%
    23:00 +21°C° 0 mm 2 mps 750 mmHg 89%

    22 January, Tuesday

    Time Temperature Precipitation Wind Pressure Humidity
    00:00 +20°C° 0 mm 2 mps 750 mmHg 89%
    01:00 +20°C° 0 mm 2 mps 749 mmHg 90%
    02:00 +19°C° 0 mm 2 mps 749 mmHg 90%
    03:00 +19°C° 0 mm 2 mps 749 mmHg 90%
    04:00 +19°C° 0 mm 2 mps 749 mmHg 90%
    05:00 +19°C° 0 mm 2 mps 749 mmHg 91%
    06:00 +20°C° 0 mm 2 mps 750 mmHg 85%
    07:00 +21°C° 0 mm 2 mps 750 mmHg 80%
    08:00 +24°C° 0 mm 2 mps 751 mmHg 74%
    09:00 +26°C° 0 mm 3 mps 751 mmHg 64%
    10:00 +28°C° 0 mm 3 mps 751 mmHg 53%
    11:00 +29°C° 0 mm 3 mps 750 mmHg 43%
    12:00 +30°C° 0 mm 3 mps 750 mmHg 39%
    13:00 +31°C° 0 mm 3 mps 749 mmHg 35%
    14:00 +33°C° 0 mm 3 mps 748 mmHg 31%
    15:00 +31°C° 0 mm 3 mps 748 mmHg 35%
    16:00 +31°C° 0 mm 3 mps 748 mmHg 40%
    17:00 +30°C° 0 mm 3 mps 748 mmHg 44%
    18:00 +28°C° 0 mm 3 mps 749 mmHg 57%
    19:00 +26°C° 0 mm 2 mps 749 mmHg 70%
    20:00 +24°C° 0 mm 2 mps 750 mmHg 82%
    21:00 +23°C° 0 mm 2 mps 750 mmHg 86%
    22:00 +23°C° 0 mm 2 mps 750 mmHg 89%
    23:00 +22°C° 0 mm 1 mps 750 mmHg 92%
    Show more